Regional Weather Roundup
Issued by NWS Wakefield, VA

Home | Current Version | Previous Version | Text Only | Print | Product List | Glossary Off
Versions: 1 2 3 4 5 6 7 8 9 10 11 12 13 14 15 16 17 18 19 20 21 22 23 24 25 26 27

000
ASUS41 KAKQ 170115
RWRAKQ

REGIONAL WEATHER ROUNDUP
NATIONAL WEATHER SERVICE WAKEFIELD VA
800 PM EST TUE JAN 16 2018

Note: "fair" indicates few or no clouds below 12,000 feet with no
significant weather and/or obstructions to visibility. * = Denotes
station may not report precipitation (e.g., rain,snow,etc.),
thunder or fog.

VAZ042-051-052>054-056-170200-
NORTHERN VIRGINIA

CITY           SKY/WX    TMP DP  RH WIND       PRES   REMARKS
WASH NATIONAL  CLOUDY    39  23  52 CALM      30.37S
DULLES         CLOUDY    34  24  67 CALM      30.35F
FORT BELVOIR   CLOUDY    32  22  66 CALM      30.36S
QUANTICO       MOCLDY    33  25  72 W3          N/A
FREDERICKSBRG* FAIR      33  27  80 CALM      30.35F
STAFFORD*      FAIR      31  26  79 CALM      30.39F
WARRENTON      FAIR      32  23  70 CALM      30.34S
CULPEPER*      CLOUDY    32  23  69 CALM      30.35F
MANASSAS*      MOCLDY    31  25  78 CALM      30.36S
LEESBURG*      CLOUDY    36  28  75 NE5       30.36S
WINCHESTER     MIX PCPN  30  27  86 CALM      30.35S
FRONT ROYAL*   CLOUDY    32  27  80 NE6       30.32S
LURAY*         CLOUDY    34  23  64 NE3       30.31S
$$

VAZ048-049-060>072-079>083-170200-
CENTRAL AND SOUTH CENTRAL VIRGINIA

CITY           SKY/WX    TMP DP  RH WIND       PRES   REMARKS
RICHMOND       CLOUDY    34  23  64 CALM      30.35F
CHESTERFIELD*  NOT AVBL
PETERSBURG*    FAIR      27  21  80 CALM      30.35F
HANOVER        FAIR      30  24  78 CALM      30.35F
TAPPAHANNOCK*  FAIR      32  29  90 CALM      30.36F
QUINTON*       FAIR      32  23  70 S6        30.35F
CHARLOTTSVILLE CLOUDY    37  17  44 CALM      30.32F
GORDONSVILLE*  FAIR      32  23  70 CALM      30.33F
ORANGE*        FAIR      32  25  74 CALM      30.33F
LOUISA*        FAIR      30  22  72 CALM      30.37F
BUMPASS*       FAIR      31  24  76 CALM      30.34S
FARMVILLE*     FAIR      33  21  61 CALM      30.32S
CREWE*         FAIR      30  22  72 CALM      30.33S
FORT PICKETT*  FAIR      34  20  55 CALM      30.33S
CHASE CITY*    FAIR      31  19  60 CALM      30.33S
CLARKSVILLE*   FAIR      34  21  60 CALM      30.32F
SOUTH HILL*    FAIR      29  24  81 CALM      30.39S
LAWRENCEVILLE* FAIR      32  23  70 CALM      30.33F
EMPORIA*       FAIR      30  23  74 CALM      30.37S
$$

VAZ088>098-170200-
SOUTHEAST VIRGINIA

CITY           SKY/WX    TMP DP  RH WIND       PRES   REMARKS
NORFOLK        FAIR      32  31  96 CALM      30.35F FOG
VIRGINIA BEACH CLOUDY    33  28  81 CALM      30.34F
NORFOLK NAVAL  MOCLDY    31  28  89 CALM      30.36F FOG
WEST POINT*    FAIR      31  28  88 CALM      30.38R
SALUDA*        FAIR      30  30 100 CALM      30.36S
NEWPORT NEWS   FAIR      29  28  96 CALM      30.35F FOG
LANGLEY AFB    FAIR      30  29  99 CALM      30.35F
FORT EUSTIS    FAIR      31  28  89 CALM      30.33F
WILLIAMSBURG*  FAIR      34  27  75 CALM      30.37S
HR EXEC AP*    FAIR      28  26  92 CALM      30.36F FOG
FRANKLIN*      FAIR      30  28  91 CALM      30.36S
US460-WAKEFLD  FAIR      30  28  92 CALM      30.36S
$$

VAZ020-022-025-037-045-170200-
WEST CENTRAL AND SOUTHWEST VIRGINIA

CITY           SKY/WX    TMP DP  RH WIND       PRES   REMARKS
STAUNTON*      CLOUDY    36  19  51 CALM      30.30S
WAYNESBORO*    CLOUDY    36  16  45 CALM      30.28S
HOT SPRINGS VA CLOUDY    30  22  70 CALM      30.17F
LYNCHBURG      CLOUDY    34  19  54 CALM      30.30F
DANVILLE       CLOUDY    34  22  61 CALM      30.32S
SOUTH BOSTON*  MOCLDY    31  19  60 CALM      30.33S
MARTINSVILLE   CLOUDY    33  21  62 CALM      30.32F
ROANOKE        MOCLDY    38  19  46 E7        30.30S
BLACKSBURG     CLOUDY    34  22  62 CALM      30.28R
DUBLIN*        CLOUDY    37  24  59 NE3       30.26R
MARION*        CLOUDY    32  26  78 W10       30.27R WCI  24
HILLSVILLE*    CLOUDY    31  20  62 CALM      30.21F
RICHLANDS*     FLURRIES  21  18  88 NW8       30.30S
WISE*          LGT SNOW  18  16  93 N7        30.32S
ABINGDON*      FLURRIES  28  23  82 W3        30.31R
$$

MDZ021>025-VAZ099-100-170200-
SOUTHERN MARYLAND AND THE DELMARVA PENINSULA

CITY           SKY/WX    TMP DP  RH WIND       PRES   REMARKS
PATUXENT RIVER NOT AVBL
BAY BRIDGE APT FAIR      32  28  86 CALM      30.37S
LEONARDTOWN    FAIR      32  32 100 CALM      30.37F
DOVER          CLOUDY    35  35 100 N3        30.35F
GEORGETOWN     NOT AVBL
EASTON         CLOUDY    32  28  86 CALM      30.39F
CAMBRIDGE      PTCLDY    34  30  86 CALM      30.36S
SALISBURY      CLOUDY    41  37  86 CALM      30.33F
OCEAN CITY     CLOUDY    41  38  89 N3        30.34F
WALLOPS ISLAND CLOUDY    35  32  88 W3        30.34F
ACCOMACK*      FAIR      28  28  99 CALM      30.35S FOG
$$

NCZ012>017-030>032-170200-
NORTH CENTRAL AND EASTERN NORTH CAROLINA

CITY           SKY/WX    TMP DP  RH WIND       PRES   REMARKS
ROANOKE RAPIDS FAIR      32  23  69 CALM      30.35S
RALEIGH        CLOUDY    35  22  58 SE3       30.33F
ELIZABETH CITY FAIR      34  34 100 E3        30.36F
AHOSKIE*       FAIR      30  28  93 CALM      30.36S
EDENTON*       NOT AVBL
CURRITUCK*     FAIR      32  32  99 CALM      30.36F FOG
KILL DEVIL HLS FOG      N/A N/A N/A CALM      30.35F VSB 1/4
MANTEO         FOG       33  33 100 N3        30.37F VSB 1/4
CAPE HATTERAS  FAIR      37  37 100 N6        30.36S
TARBORO*       NOT AVBL
GOLDSBORO      CLEAR     38  26  60 CALM      30.34S
WASHINGTON     FAIR      37  31  78 SE3       30.36F
GREENVILLE     FAIR      36  27  69 CALM      30.36S
NEW BERN       FAIR      36  31  82 CALM      30.37S
WILMINGTON     FAIR      39  32  76 CALM      30.37S
$$

VAZ048-170200-
ELSEWHERE

CITY           SKY/WX    TMP DP  RH WIND       PRES   REMARKS
HARRISBURG PA  LGT SNOW  31  31 100 NW6       30.36S FOG
BALTIMORE      CLOUDY    32  28  85 CALM      30.36S
ANNAPOLIS      FAIR      34  32  92 CALM      30.37R
ANDREWS AFB    FAIR      33  24  71 CALM      30.34S
PHILADELPHIA   CLOUDY    39  31  72 SE6       30.37F
HENDERSON NC   FAIR      33  17  52 CALM      30.32F
GREENSBORO     CLOUDY    38  23  55 CALM      30.29F
ROCKY MOUNT    FAIR      32  27  81 CALM      30.36R
$$

VAZ100-170200-
MARINE

STATION/POSITION TIME  TEMP    WIND        PRES    WAVE   SWELL
                       AIR SEA DIR/SP/G            HT/PER HT/PER
                 (UTC) (F)     (DEG/KT/KT) (MB)    (FT/S) (FT/S)
BRANDYWINE LGT   0048   41      90/ 11/ 12 1027.9F
CAPE MAY NJ      0048   39 34  100/  6/  8 1027.2F
LEWES DE         0048   39 35  100/  8/ 10 1027.3F
15NM E FENWICK I 2350   45 43   50/  8/ 10 1028.0    6/11   5/11
OCEAN-CITY-INLET 0048   38 35   30/  4/  5 1027.7F
WACHAPREAGUE VA  0048   30 36   CALM  /  1 1027.5F
THOMAS POINT MD  0100   32 32   90/  2/  2   N/A
GOOSES REEF MD   0100   32 33   60/  2/  4 1028.6    0
COVE POINT MD    0048   30     340/  6/  7 1028.9S
SOLOMONS ISLAND  0048   33 35  320/  3/  4 1027.9S
BISHOPS HEAD MD  0048   32 31  320/  5/  6 1028.3R
PINEY POINT MD   0048          360/  5/  5   N/A
POTOMAC MD       0050   33     350/  4/  6 1027.4S
CAMBRIDGE MD     0048   33 32              1028.9S
LEWISETTA VA     0048   31 33  310/  5/  5 1028.2R
RAPPAHANNOCK LGT 0048             CALM     1028.5F
STINGRAY PT      0100   32 34  260/  2/  2 1030.3    0
YORK RVR RNG VA  0048   31     240/  3/  3 1028.4F
YORKTOWN VA      0048   31 35   CALM  /  1 1027.7F
DOMINION TERM VA 0048   34     110/  2/  3 1028.0F
KIPTOPEKE VA     0048      35  290/  2/  3   N/A
CAPE HENRY VA    0048   34     270/  3/  3   N/A
WILLOUBY STN VA  0048          130/  2/  2 1027.6F
S CRANEY ISL VA  0048   35      CALM  /  1 1027.7F
CAPE HENRY BUOY  0100      42                N/A     4/11   3/11
1ST LANDING BUOY 0100   31 36  330/  6/ 10 1027.7    2/ 6
CAPE CHARLES BUO 0051      39                N/A     4/11   3/11
64NM E OF VA BCH 0050   42 64  300/ 10/ 12 1027.7F   8/11   8/11
DUCK PIER NC     0048   34 39   10/  1/  2 1027.8F
44100 DUCK FRF   0015      42                N/A     5/11   3/11
44056 DUCK FRF   0100      39                N/A     5/11   3/11
OREGON INLET NC  0048          360/  4/  5   N/A
HATTERAS NC      0048   39 47   20/  5/  9 1027.7S
DIAMOND SHLS NC  0050   47 66  360/ 10/ 12 1028.0S   6/11   7/11
CAPE LOOKOUT NC  0000          340/  5/  6 1028.0F
$$




USA.gov is the U.S. government's official web portal to all federal, state and local government web resources and services.